FW4741 Weather Reports


time (UTC)temp
C
wind
direction
speed
KPH
gust
KPH
rain 1hr
cm
rain 24hr
cm
rain mn
cm
humidity
%
barometer
mb
20260831034102 15 77 3.2 9.7 0.00 0.00 0.00 92 1024.7
20260831033603 15 77 3.2 9.7 0.00 0.00 0.00 92 1024.6
20260831032603 15 77 3.2 9.7 0.00 0.00 0.00 92 1024.7
20260831032104 15 77 3.2 9.7 0.00 0.00 0.00 92 1024.7
20260831031603 15 77 3.2 9.7 0.00 0.00 0.00 92 1024.8
20260831031103 15 77 3.2 9.7 0.00 0.00 0.00 92 1024.8
20260831030603 15 77 3.2 9.7 0.00 0.00 0.00 92 1024.7
20260831025603 15 77 3.2 9.7 0.00 0.00 0.00 91 1024.6
20260831024603 16 77 3.2 9.7 0.00 0.00 0.00 91 1024.7
20260831023604 16 77 3.2 9.7 0.00 0.00 0.00 91 1024.6
20260831023103 16 77 3.2 9.7 0.00 0.00 0.00 91 1024.4
20260831022603 16 77 3.2 9.7 0.00 0.00 0.00 91 1024.3
20260831022102 16 77 3.2 9.7 0.00 0.00 0.00 90 1024.2
20260831021603 16 77 3.2 9.7 0.00 0.00 0.00 90 1024.2
20260831021103 16 77 3.2 9.7 0.00 0.00 0.00 88 1024.0
20260831020103 16 77 3.2 9.7 0.00 0.00 0.00 89 1023.8
20260831014603 16 77 3.2 9.7 0.00 0.00 0.00 91 1023.5
20260831013602 16 77 3.2 9.7 0.00 0.00 0.00 89 1023.4
20260831013102 16 77 3.2 9.7 0.00 0.00 0.00 88 1023.6
20260831012603 16 77 3.2 9.7 0.00 0.00 0.00 88 1023.6
20260831012103 16 77 3.2 9.7 0.00 0.00 0.00 87 1023.6
20260831011603 16 77 3.2 9.7 0.00 0.00 0.00 87 1023.6
20260831011103 16 77 3.2 9.7 0.00 0.00 0.00 87 1023.7
20260831010603 16 77 3.2 9.7 0.00 0.00 0.00 87 1023.7
20260831005103 18 77 3.2 9.7 0.00 0.00 0.00 80 1023.5
20260831004602 18 77 3.2 9.7 0.00 0.00 0.00 76 1023.6
20260831004103 18 77 3.2 9.7 0.00 0.00 0.00 72 1023.5
20260831003603 18 77 3.2 9.7 0.00 0.00 0.00 72 1023.5
20260831002602 19 77 3.2 9.7 0.00 0.00 0.00 69 1023.4
20260831002103 20 77 3.2 9.7 0.00 0.00 0.00 64 1023.4
20260831001602 20 77 3.2 9.7 0.00 0.00 0.00 65 1023.2
20260831001102 20 77 3.2 9.7 0.00 0.00 0.00 62 1023.2
20260831000603 21 77 3.2 9.7 0.00 0.00 0.00 60 1023.1
20260830235602 22 77 3.2 9.7 0.00 0.00 0.00 58 1023.0
20260830235103 22 77 3.2 9.7 0.00 0.00 0.00 58 1022.9
20260830234102 23 77 3.2 9.7 0.00 0.00 0.00 59 1022.5
20260830233603 23 77 3.2 9.7 0.00 0.00 0.00 59 1022.3
20260830233103 23 77 3.2 9.7 0.00 0.00 0.00 57 1022.3
20260830232603 23 77 3.2 9.7 0.00 0.00 0.00 57 1022.3
20260830232103 23 77 3.2 9.7 0.00 0.00 0.00 57 1022.2
20260830231603 23 77 3.2 9.7 0.00 0.00 0.00 58 1022.2
20260830231103 23 77 3.2 9.7 0.00 0.00 0.00 58 1022.0
20260830230602 23 77 3.2 9.7 0.00 0.00 0.00 57 1021.9
20260830230103 23 77 3.2 9.7 0.00 0.00 0.00 57 1022.0
20260830225603 23 77 3.2 9.7 0.00 0.00 0.00 57 1022.0
20260830225103 24 77 3.2 9.7 0.00 0.00 0.00 58 1022.0
20260830224103 24 77 3.2 9.7 0.00 0.00 0.00 58 1021.9
20260830223603 24 77 3.2 9.7 0.00 0.00 0.00 58 1021.9
20260830223103 24 77 3.2 9.7 0.00 0.00 0.00 58 1021.9
20260830222603 23 77 3.2 9.7 0.00 0.00 0.00 61 1021.8
20260830222103 23 77 3.2 9.7 0.00 0.00 0.00 61 1021.7
20260830221602 23 77 3.2 9.7 0.00 0.00 0.00 62 1021.8
20260830221102 23 77 3.2 9.7 0.00 0.00 0.00 60 1021.8
20260830215602 23 77 3.2 9.7 0.00 0.00 0.00 60 1021.7
20260830214103 23 77 3.2 9.7 0.00 0.00 0.00 62 1021.9
20260830213602 24 77 3.2 9.7 0.00 0.00 0.00 61 1021.9
20260830213103 25 77 3.2 9.7 0.00 0.00 0.00 60 1021.9
20260830212603 25 77 3.2 9.7 0.00 0.00 0.00 58 1021.9
20260830212102 25 77 3.2 9.7 0.00 0.00 0.00 57 1021.9
20260830211603 25 77 3.2 9.7 0.00 0.00 0.00 58 1021.9
20260830211102 25 77 3.2 9.7 0.00 0.00 0.00 58 1022.0
20260830210603 25 77 3.2 9.7 0.00 0.00 0.00 57 1021.9
20260830205603 25 77 3.2 9.7 0.00 0.00 0.00 59 1022.1
20260830205102 24 77 3.2 9.7 0.00 0.00 0.00 60 1022.2
20260830203603 25 77 3.2 9.7 0.00 0.00 0.00 60 1022.3
20260830203103 25 77 3.2 9.7 0.00 0.00 0.00 59 1022.3
20260830202603 25 77 3.2 9.7 0.00 0.00 0.00 57 1022.3
20260830202103 25 77 3.2 9.7 0.00 0.00 0.00 58 1022.3
20260830201603 25 77 3.2 9.7 0.00 0.00 0.00 58 1022.3
20260830201103 25 77 3.2 9.7 0.00 0.00 0.00 58 1022.4
20260830200603 25 77 3.2 9.7 0.00 0.00 0.00 58 1022.5
20260830200103 25 77 3.2 9.7 0.00 0.00 0.00 58 1022.6
20260830195603 25 77 3.2 9.7 0.00 0.00 0.00 59 1022.7
20260830195102 25 77 3.2 9.7 0.00 0.00 0.00 58 1022.7
20260830194603 25 77 3.2 9.7 0.00 0.00 0.00 59 1022.7
20260830194103 25 77 3.2 9.7 0.00 0.00 0.00 59 1022.8
20260830193602 25 77 3.2 9.7 0.00 0.00 0.00 59 1022.9
20260830193103 25 77 3.2 9.7 0.00 0.00 0.00 59 1023.0
20260830192603 25 77 3.2 9.7 0.00 0.00 0.00 58 1023.0
20260830192103 25 77 3.2 9.7 0.00 0.00 0.00 59 1023.1
20260830191603 25 77 3.2 9.7 0.00 0.00 0.00 58 1023.2
20260830185603 24 77 3.2 9.7 0.00 0.00 0.00 58 1023.3
20260830185104 24 77 3.2 9.7 0.00 0.00 0.00 58 1023.4
20260830184603 24 77 3.2 9.7 0.00 0.00 0.00 58 1023.5
20260830183603 25 77 3.2 9.7 0.00 0.00 0.00 56 1023.5
20260830183103 24 77 3.2 9.7 0.00 0.00 0.00 55 1023.5
20260830182602 24 77 3.2 9.7 0.00 0.00 0.00 55 1023.6
20260830182103 24 77 3.2 9.7 0.00 0.00 0.00 54 1023.6
20260830181603 24 77 3.2 9.7 0.00 0.00 0.00 55 1023.7
20260830181103 24 77 3.2 9.7 0.00 0.00 0.00 54 1023.6
20260830180603 24 77 3.2 9.7 0.00 0.00 0.00 55 1023.6
20260830175603 24 77 3.2 9.7 0.00 0.00 0.00 55 1023.6
20260830174603 23 77 3.2 9.7 0.00 0.00 0.00 57 1023.7
20260830174103 23 77 3.2 9.7 0.00 0.00 0.00 56 1023.7
20260830173602 23 77 3.2 9.7 0.00 0.00 0.00 57 1023.8
20260830173103 23 77 3.2 9.7 0.00 0.00 0.00 58 1023.8
20260830172102 23 77 3.2 9.7 0.00 0.00 0.00 58 1023.9
20260830171603 23 77 3.2 9.7 0.00 0.00 0.00 57 1023.8
20260830171103 23 77 3.2 9.7 0.00 0.00 0.00 58 1023.8
20260830170603 23 77 3.2 9.7 0.00 0.00 0.00 57 1023.8
20260830165603 23 77 3.2 9.7 0.00 0.00 0.00 58 1023.9
20260830165102 23 77 3.2 9.7 0.00 0.00 0.00 55 1023.9
20260830164603 23 77 3.2 9.7 0.00 0.00 0.00 56 1023.9
20260830164103 23 77 3.2 9.7 0.00 0.00 0.00 56 1023.9
20260830163603 23 77 3.2 9.7 0.00 0.00 0.00 57 1024.0
20260830163103 23 77 3.2 9.7 0.00 0.00 0.00 56 1024.0
20260830162602 23 77 3.2 9.7 0.00 0.00 0.00 59 1024.0
20260830162103 23 77 3.2 9.7 0.00 0.00 0.00 61 1024.1
20260830161603 22 77 3.2 9.7 0.00 0.00 0.00 62 1024.1
20260830161103 22 77 3.2 9.7 0.00 0.00 0.00 64 1024.2
20260830160603 22 77 3.2 9.7 0.00 0.00 0.00 63 1024.2
20260830155602 21 77 3.2 9.7 0.00 0.00 0.00 62 1024.3
20260830155102 21 77 3.2 9.7 0.00 0.00 0.00 63 1024.3
20260830154603 21 77 3.2 9.7 0.00 0.00 0.00 66 1024.4
20260830154102 21 77 3.2 9.7 0.00 0.00 0.00 69 1024.5
20260830153103 21 77 3.2 9.7 0.00 0.00 0.00 68 1024.6
20260830152602 20 77 3.2 9.7 0.00 0.00 0.00 69 1024.6
20260830151103 20 77 3.2 9.7 0.00 0.00 0.00 72 1024.6
20260830150603 20 77 3.2 9.7 0.00 0.00 0.00 72 1024.7
20260830145603 19 77 3.2 9.7 0.00 0.00 0.00 72 1024.6
20260830145103 19 77 3.2 9.7 0.00 0.00 0.00 73 1024.6
20260830144603 18 77 3.2 9.7 0.00 0.00 0.00 74 1024.5
20260830143103 18 77 3.2 9.7 0.00 0.00 0.00 75 1024.6
20260830142102 17 77 3.2 9.7 0.00 0.00 0.00 78 1024.7
20260830141603 17 77 3.2 9.7 0.00 0.00 0.00 78 1024.6
20260830141103 17 77 3.2 9.7 0.00 0.00 0.00 76 1024.5
20260830140602 17 77 3.2 9.7 0.00 0.00 0.00 77 1024.6
20260830135603 16 77 3.2 9.7 0.00 0.00 0.00 78 1024.5
20260830135103 16 77 3.2 9.7 0.00 0.00 0.00 78 1024.5
20260830134603 16 77 3.2 9.7 0.00 0.00 0.00 79 1024.5
20260830134103 15 77 3.2 9.7 0.00 0.00 0.00 79 1024.6
20260830133603 15 77 3.2 9.7 0.00 0.00 0.00 79 1024.6
20260830133103 15 77 3.2 9.7 0.00 0.00 0.00 81 1024.5
20260830132603 15 77 3.2 9.7 0.00 0.00 0.00 83 1024.5
20260830132102 15 77 3.2 9.7 0.00 0.00 0.00 84 1024.5
20260830131603 14 77 3.2 9.7 0.00 0.00 0.00 84 1024.5
20260830131104 14 77 3.2 9.7 0.00 0.00 0.00 85 1024.5
20260830125603 14 77 3.2 9.7 0.00 0.00 0.00 84 1024.3
20260830125103 15 77 3.2 9.7 0.00 0.00 0.00 84 1024.3
20260830124603 15 77 3.2 9.7 0.00 0.00 0.00 82 1024.3
20260830123603 15 77 3.2 9.7 0.00 0.00 0.00 82 1024.2
20260830123102 15 77 3.2 9.7 0.00 0.00 0.00 82 1024.2
20260830122603 14 77 3.2 9.7 0.00 0.00 0.00 84 1024.2
20260830122103 14 77 3.2 9.7 0.00 0.00 0.00 86 1024.1
20260830121602 14 77 3.2 9.7 0.00 0.00 0.00 86 1024.1
20260830121103 15 77 3.2 9.7 0.00 0.00 0.00 87 1024.0
20260830120603 15 77 3.2 9.7 0.00 0.00 0.00 86 1024.0
20260830120103 15 77 3.2 9.7 0.00 0.00 0.00 86 1024.0
20260830115103 15 77 3.2 9.7 0.00 0.00 0.00 87 1024.0
20260830114603 15 77 3.2 9.7 0.00 0.00 0.00 86 1024.0
20260830114103 15 77 3.2 9.7 0.00 0.00 0.00 86 1023.9
20260830113603 15 77 3.2 9.7 0.00 0.00 0.00 87 1023.8
20260830113103 15 77 3.2 9.7 0.00 0.00 0.00 88 1023.8
20260830112603 15 77 3.2 9.7 0.00 0.00 0.00 88 1023.9
20260830111603 15 77 3.2 9.7 0.00 0.00 0.00 88 1023.8
20260830111103 15 77 3.2 9.7 0.00 0.00 0.00 88 1023.8
20260830110603 15 77 3.2 9.7 0.00 0.00 0.00 88 1023.8
20260830105602 15 77 3.2 9.7 0.00 0.00 0.00 87 1023.7
20260830105103 16 77 3.2 9.7 0.00 0.00 0.00 86 1023.8
20260830104603 16 77 3.2 9.7 0.00 0.00 0.00 85 1023.8
20260830104103 16 77 3.2 9.7 0.00 0.00 0.00 84 1023.8
20260830103602 16 77 3.2 9.7 0.00 0.00 0.00 84 1023.7
20260830103103 16 77 3.2 9.7 0.00 0.00 0.00 84 1023.7
20260830102603 16 77 3.2 9.7 0.00 0.00 0.00 84 1023.7
20260830102103 16 77 3.2 9.7 0.00 0.00 0.00 84 1023.7
20260830101603 16 77 3.2 9.7 0.00 0.00 0.00 84 1023.7
20260830101103 16 77 3.2 9.7 0.00 0.00 0.00 84 1023.6
20260830100603 16 77 3.2 9.7 0.00 0.00 0.00 83 1023.7
20260830095102 16 77 3.2 9.7 0.00 0.00 0.00 83 1023.7
20260830094603 16 77 3.2 9.7 0.00 0.00 0.00 83 1023.7
20260830094103 16 77 3.2 9.7 0.00 0.00 0.00 82 1023.7
20260830093603 17 77 3.2 9.7 0.00 0.00 0.00 82 1023.7
20260830093104 17 77 3.2 9.7 0.00 0.00 0.00 81 1023.8
20260830092603 17 77 3.2 9.7 0.00 0.00 0.00 81 1023.8
20260830092103 17 77 3.2 9.7 0.00 0.00 0.00 82 1023.8
20260830091103 17 77 3.2 9.7 0.00 0.00 0.00 81 1023.9
20260830090603 17 77 3.2 9.7 0.00 0.00 0.00 81 1023.9
20260830085603 17 77 3.2 9.7 0.00 0.00 0.00 80 1023.8
20260830084602 17 77 3.2 9.7 0.00 0.00 0.00 80 1023.8
20260830084103 17 77 3.2 9.7 0.00 0.00 0.00 79 1023.9
20260830083603 17 77 3.2 9.7 0.00 0.00 0.00 79 1023.9
20260830083103 17 77 3.2 9.7 0.00 0.00 0.00 79 1023.9
20260830082602 17 77 3.2 9.7 0.00 0.00 0.00 79 1024.0
20260830082103 17 77 3.2 9.7 0.00 0.00 0.00 79 1024.0
20260830081603 17 77 3.2 9.7 0.00 0.00 0.00 78 1024.0
20260830081103 18 77 3.2 9.7 0.00 0.00 0.00 78 1024.0
20260830080603 18 77 3.2 9.7 0.00 0.00 0.00 78 1024.0
20260830075603 18 77 3.2 9.7 0.00 0.00 0.00 78 1024.1
20260830075103 18 77 3.2 9.7 0.00 0.00 0.00 78 1024.2
20260830074602 18 77 3.2 9.7 0.00 0.00 0.00 78 1024.2
20260830074103 18 77 3.2 9.7 0.00 0.00 0.00 78 1024.2
20260830073603 18 77 3.2 9.7 0.00 0.00 0.00 78 1024.3
20260830073103 18 77 3.2 9.7 0.00 0.00 0.00 78 1024.3
20260830072603 18 77 3.2 9.7 0.00 0.00 0.00 78 1024.4
20260830072102 18 77 3.2 9.7 0.00 0.00 0.00 78 1024.4
20260830071602 18 77 3.2 9.7 0.00 0.00 0.00 77 1024.5
20260830070603 18 77 3.2 9.7 0.00 0.00 0.00 77 1024.5
20260830065603 18 77 3.2 9.7 0.00 0.00 0.00 76 1024.6
20260830065103 18 77 3.2 9.7 0.00 0.00 0.00 76 1024.7
20260830064602 18 77 3.2 9.7 0.00 0.00 0.00 76 1024.7
20260830063603 18 77 3.2 9.7 0.00 0.00 0.00 76 1024.8
20260830063102 18 77 3.2 9.7 0.00 0.00 0.00 76 1024.8
20260830062604 18 77 3.2 9.7 0.00 0.00 0.00 76 1024.8
20260830062103 18 77 3.2 9.7 0.00 0.00 0.00 76 1024.8
20260830061103 17 77 3.2 9.7 0.00 0.00 0.00 77 1024.9
20260830060603 17 77 3.2 9.7 0.00 0.00 0.00 78 1024.9
20260830055603 17 77 3.2 9.7 0.00 0.00 0.00 79 1024.9
20260830054603 17 77 3.2 9.7 0.00 0.00 0.00 79 1024.9
20260830054103 17 77 3.2 9.7 0.00 0.00 0.00 79 1024.9
20260830053603 17 77 3.2 9.7 0.00 0.00 0.00 79 1025.0
20260830053103 17 77 3.2 9.7 0.00 0.00 0.00 79 1025.0
20260830052603 17 77 3.2 9.7 0.00 0.00 0.00 79 1025.0
20260830051603 17 77 3.2 9.7 0.00 0.00 0.00 80 1025.0
20260830045103 17 77 3.2 9.7 0.00 0.00 0.00 77 1025.0
20260830044103 17 77 3.2 9.7 0.00 0.00 0.00 75 1025.0
20260830043602 18 77 3.2 9.7 0.00 0.00 0.00 74 1025.0
20260830043103 18 77 3.2 9.7 0.00 0.00 0.00 73 1025.0
20260830042603 18 77 3.2 9.7 0.00 0.00 0.00 72 1024.9
20260830042103 18 77 3.2 9.7 0.00 0.00 0.00 72 1024.9
20260830041603 18 77 3.2 9.7 0.00 0.00 0.00 72 1024.9
20260830041103 18 77 3.2 9.7 0.00 0.00 0.00 73 1024.9
20260830040603 18 77 3.2 9.7 0.00 0.00 0.00 74 1024.8
20260830035603 18 77 3.2 9.7 0.00 0.00 0.00 74 1024.7
20260830035103 18 77 3.2 9.7 0.00 0.00 0.00 75 1024.6